Location: Newark
(44.3248°N, 23.7839°E)
Time: 23:31:34
(UTC+00:00)

PCSat - Pass Details

Date: 20 April 2024
Orbit: 783 x 792 km, 67.1° (Epoch: 21 May)

Event Time Altitude Azimuth Distance (km) Brightness Sun altitude
Rises 18:27:35 0° 224° (SW) 3,267 12.9 -12.5°
Reaches altitude 10° 18:30:02 10° 229° (SW) 2,343 12.2 -12.9°
Maximum altitude 18:35:18 54° 306° (NW) 960 10.4 -13.7°
Drops below altitude 10° 18:40:36 10° 24° (NNE) 2,363 12.1 -14.5°
Sets 18:43:06 0° 29° (NNE) 3,297 12.8 -14.8°
